[[{"header":{"parameterUnit":"m.s-1","parameterCategory":1,"la1":30.2992,"la2":30.254,"lo1":-89.0895,"lo2":-89.0443,"dy":0.0025,"dx":0.0025,"nx":19,"ny":19,"refTime":"2026-04-05T21:00:00:Z","depth":0,"parameterNumber":2,"parameterNumberName":"U-component_of_WINDS"},"data":[0,0,0,0.6862,0.6868,0.7184,0.7185,0.7555,0.7558,0,0,0,0,0,0,0,0,0,0,0,0.6743,0.6744,0.6862,0.6869,0.7183,0.7185,0.7554,0.7558,0,0,0,0,0,0,0,0,0,0,0,0.6742,0.6744,0.6746,0.687,0.7183,0.7185,0.7554,0.7329,0,0,0,0,0,0,0,0,0,0,0.703,0.6892,0.6743,0.6746,0.6871,0.7183,0.7185,0.7319,0.7343,0.7396,0,0.743,0,0.7499,0.758,0.7581,0,0,0,0.689,0.6871,0.6979,0.6746,0.6874,0.7182,0.7048,0.7333,0.736,0.7428,0.7436,0.7451,0.7505,0.7582,0.7584,0.7804,0.7804,0,0,0.6873,0.6787,0.696,0.6996,0.6938,0.7037,0.7057,0.735,0.7356,0.7438,0.746,0.7511,0.7584,0.7587,0.7804,0.7804,0,0,0,0.6808,0.6773,0.6875,0.6979,0.7038,0.7046,0.7069,0.7343,0.7383,0.7465,0.7516,0.7586,0.759,0.7804,0.7804,0.7719,0,0,0,0.6799,0.6736,0.6867,0.6817,0.7032,0.7193,0.7054,0.7363,0.7399,0.7514,0.7586,0.7593,0.7804,0.7804,0.7722,0.7694,0,0,0,0.6731,0.6729,0.6764,0.6812,0.6944,0.7191,0.7248,0.7372,0.7429,0.7581,0.7594,0.7804,0.7804,0.7724,0.7698,0.7726,0,0,0,0.6636,0.6687,0.6761,0.684,0.694,0.7134,0.7247,0.7398,0.7518,0.7588,0.7804,0.7804,0.7724,0.77,0.7728,0.7733,0.7727,0,0,0.6653,0.6686,0.674,0.6815,0.6972,0.7093,0.7242,0.7436,0.7533,0.771,0.7716,0.7721,0.7698,0.7727,0.7726,0.772,0,0,0,0.6716,0.6753,0.6814,0.6921,0.7068,0.7194,0.7374,0.7447,0.7601,0.7604,0.7742,0.7731,0.7752,0.7759,0.7754,0.7778,0.7803,0.7803,0.7803,0.6618,0.6734,0.6831,0.6985,0.7089,0.7275,0.7372,0.7503,0.7594,0.7624,0.7677,0.7661,0.7666,0.7663,0.7686,0.769,0.769,0.769,0.769,0.6654,0.6725,0.6841,0.6976,0.7101,0.7219,0.7401,0.7461,0.7592,0.7631,0.7655,0.7686,0.7653,0.768,0.7684,0.7685,0.7686,0.7686,0.7687,0.6602,0.6656,0.674,0.6909,0.7027,0.7186,0.7304,0.7417,0.7524,0.7547,0.7616,0.7618,0.7634,0.7572,0.7572,0.7572,0.7572,0.7572,0.7572,0.6513,0.6611,0.6694,0.6854,0.6939,0.7065,0.7254,0.7343,0.7471,0.7543,0.7545,0.7632,0.7627,0.7623,0.7571,0.7572,0.7572,0.7572,0.7572,0.6505,0.6524,0.6652,0.6736,0.6935,0.7046,0.7187,0.7359,0.7449,0.7505,0.759,0.7567,0.7611,0.7615,0.7613,0.7562,0.7562,0.7562,0.7562,0.646,0.6492,0.6648,0.6776,0.6915,0.7055,0.7202,0.735,0.7509,0.7573,0.7598,0.7604,0.7604,0.7648,0.7652,0.7652,0.7612,0.7612,0.7612,0.6462,0.6512,0.6612,0.6761,0.6925,0.7066,0.7208,0.7355,0.754,0.7617,0.7627,0.7624,0.7637,0.7634,0.7709,0.7712,0.7714,0,0]},{"header":{"parameterUnit":"m.s-1","parameterCategory":1,"la1":30.2992,"la2":30.254,"lo1":-89.0895,"lo2":-89.0443,"dy":0.0025,"dx":0.0025,"nx":19,"ny":19,"refTime":"2026-04-05T21:00:00:Z","depth":0,"parameterNumber":3,"parameterNumberName":"V-component_of_WINDS"},"data":[0,0,0,-3.3988,-3.3987,-3.393,-3.393,-3.3871,-3.387,0,0,0,0,0,0,0,0,0,0,0,-3.4017,-3.4017,-3.3988,-3.3987,-3.393,-3.393,-3.3871,-3.387,0,0,0,0,0,0,0,0,0,0,0,-3.4016,-3.4017,-3.4017,-3.3987,-3.3931,-3.393,-3.3871,-3.3908,0,0,0,0,0,0,0,0,0,0,-3.3961,-3.3999,-3.4017,-3.4017,-3.3987,-3.3931,-3.393,-3.391,-3.3906,-3.3903,0,-3.3907,0,-3.3888,-3.3868,-3.3867,0,0,0,-3.3978,-3.4002,-3.3977,-3.4017,-3.3986,-3.3931,-3.3953,-3.3907,-3.3903,-3.3898,-3.3906,-3.3903,-3.3887,-3.3867,-3.3867,-3.3892,-3.3892,0,0,-3.3981,-3.4012,-3.398,-3.3975,-3.3988,-3.3955,-3.3952,-3.3904,-3.3914,-3.3906,-3.3902,-3.3886,-3.3867,-3.3867,-3.3891,-3.3892,0,0,0,-3.3996,-3.4014,-3.399,-3.3978,-3.3967,-3.3954,-3.395,-3.3916,-3.3905,-3.3901,-3.3886,-3.3867,-3.3866,-3.389,-3.3891,-3.3949,0,0,0,-3.3998,-3.4023,-3.3992,-3.401,-3.3968,-3.3941,-3.3962,-3.3909,-3.3902,-3.3886,-3.3867,-3.3866,-3.389,-3.3891,-3.3946,-3.397,0,0,0,-3.4016,-3.4025,-3.4021,-3.4012,-3.3989,-3.3941,-3.3928,-3.3907,-3.3893,-3.3867,-3.3866,-3.3889,-3.3891,-3.3943,-3.3965,-3.3984,0,0,0,-3.4044,-3.4072,-3.4023,-3.4048,-3.3989,-3.3979,-3.3928,-3.3918,-3.3903,-3.3867,-3.389,-3.3891,-3.3942,-3.3963,-3.3982,-3.4004,-3.4017,0,0,-3.4096,-3.408,-3.4092,-3.4046,-3.4053,-3.3985,-3.3999,-3.3954,-3.3922,-3.3903,-3.3903,-3.3947,-3.3965,-3.3983,-3.4084,-3.4094,0,0,0,-3.4119,-3.4128,-3.4124,-3.4112,-3.4081,-3.4055,-3.4006,-3.3989,-3.3972,-3.392,-3.3959,-3.3969,-3.3978,-3.3987,-3.3996,-3.4001,-3.3898,-3.3897,-3.3897,-3.4235,-3.4196,-3.4213,-3.4167,-3.4156,-3.4106,-3.4092,-3.4061,-3.4022,-3.4032,-3.4025,-3.4091,-3.4103,-3.411,-3.4115,-3.4036,-3.4036,-3.4036,-3.4036,-3.4307,-3.4312,-3.4263,-3.4262,-3.4219,-3.4216,-3.4169,-3.4141,-3.413,-3.4093,-3.4099,-3.4059,-3.4123,-3.4125,-3.404,-3.4039,-3.4039,-3.4039,-3.4038,-3.4376,-3.4372,-3.4354,-3.4333,-3.4322,-3.4273,-3.4266,-3.4226,-3.4188,-3.4195,-3.4182,-3.4181,-3.4172,-3.4192,-3.4193,-3.4193,-3.4193,-3.4193,-3.4193,-3.4454,-3.4432,-3.4432,-3.4403,-3.4391,-3.4369,-3.432,-3.4305,-3.4278,-3.4249,-3.4249,-3.4207,-3.4138,-3.412,-3.4196,-3.4196,-3.4195,-3.4195,-3.4195,-3.4536,-3.4512,-3.4513,-3.4501,-3.4462,-3.4452,-3.4404,-3.4377,-3.4359,-3.4356,-3.4314,-3.4271,-3.4249,-3.4241,-3.4226,-3.4325,-3.4325,-3.4325,-3.4325,-3.4593,-3.458,-3.4571,-3.4554,-3.4533,-3.449,-3.4488,-3.445,-3.4405,-3.4391,-3.4371,-3.4349,-3.4343,-3.4324,-3.4315,-3.43,-3.4415,-3.4415,-3.4415,-3.464,-3.4623,-3.4631,-3.4591,-3.4559,-3.4531,-3.4527,-3.4507,-3.4451,-3.4418,-3.4378,-3.4374,-3.4337,-3.4327,-3.4291,-3.4277,-3.4248,0,0]}]]